Location: Unspecified
(45.3712°N, 0.6436°E)
Time: 06:40:12
(UTC+02:00)

ISS - Pass Details

Date: 20 July 2018
Orbit: 402 x 408 km, 51.6° (Epoch: 18 July)

Event Time Altitude Azimuth Distance (km) Brightness Sun altitude
Rises 22:07:04 0° 199° (SSW) 2,305 -0.2 -5.0°
Reaches altitude 10° 22:09:35 10° 179° (S) 1,452 -1.4 -5.4°
Maximum altitude 22:11:49 17° 135° (SE) 1,097 -2.3 -5.7°
Drops below altitude 10° 22:14:04 10° 92° (E) 1,461 -1.5 -6.0°
Sets 22:16:37 0° 72° (ENE) 2,326 -0.3 -6.3°
